Showing default

COSMOS 2591, 65267

Orbit data source: Space-Track

COSMOS 2591, 65267 is a payload satellite owned by MO RF (CIS) in SSO that was launched on Thu, 21 Aug 2025 UTC via an ANGARA-1.2 launch vehicle from the Plesetsk Missile And Space Complex (PKMTR). Payload-class satellites include a variety of spacecraft equipped with specific instruments for various scientific and technological missions. These include communications satellites like Starlink; space stations such as the ISS; scientific satellites like the Hubble; Earth observation satellites from companies like Planet Labs, Umbra, and HawkEye 360; GPS; miniature CubeSats for education and research; and military/defense satellites.

Not visible in the next 10 days
Identifier
65267, 2025-182A
Orbit
SSO
Country
Flag of CISCIS
Related business
Manufacturer
VNIIEMI?
Mission
Operational Defense Imaging
Bus & Motor
OO-MKA, Unknown motor
Mass
520 kg wet, ~500 kg dry
Launch date (UTC)
2025-08-21 (9 months ago)
Launch vehicle
ANGARA-1.2
Launch site
Plesetsk Missile And Space Complex (PKMTR)
Object type
Payload
Rocket body
Debris
Shape & HBR
Cyl + 2 Pan, 1.1 m
Radar Cross Section
3.727 m², Large (>1 m²)

Expand to show TLE details & history
Last TLE update: 10 hours ago

TLE from 10 hours ago
0 COSMOS 2591
1 65267U 25182A   26133.19168260  .00059262  31933-5  14398-3 0  9998
2 65267  96.5888  65.1017 0000824 308.5592  51.5613 15.96421099 42113
Epoch: 2026-05-13T04:36Z
TLE epoch observation values (Epoch: 2026-05-13T04:36:01.376Z)
Latitude
0.00001°
Longitude
125.14072°
Altitude
287.232 km
Speed
7.735 km/s
True Right ascension
04h 20m 24s
True Declination
0° 00' 00"
Sunlit
Object was in daylight at epoch
Visualization orbit readout
Latitude
Unknown
Longitude
Unknown
Altitude
Unknown
Speed
Unknown
Apparent Right ascension
Unknown
Apparent Declination
Unknown
Sunlit
N/A
Visualization observer readout
Local Sidereal Time
23:16:20
Azimuth
Unknown
Elevation
Unknown
Doppler factor
Unknown
Orbital elements
Apogee altitude
281.737 km
Perigee altitude
280.639 km
Semi-major axis
6,659.325 km
Eccentricity
0.00008
Inclination
96.5888°
RAAN
65.1017°
Arg. of periapsis
308.5592°
True anomaly
51.5687°
Mean anomaly
51.5613°
Eccentric anomaly
51.565°
Mean motion
3.99391 °/min
Orbital period
90.14 mins
BSTAR
0.00014398
Loading maneuver chart data...
Computing Atmospheric mass density...
Loading historical data...
Loading historical data...
Loading historical data...
Loading historical data...
Loading historical data...
Loading historical data...
Loading historical data...
Other satellites on launch #182 in the year 2025 (2025-08-21 UTC)

Documentation

Showing up to 5 results
|